Location: La Estación
(39.9833°N, 3.9500°W)
Time: 15:52:02
(UTC+00:00)

Cosmos 1725 Rocket - Pass Details

Date: 14 June 2025
Orbit: 962 x 989 km, 82.9° (Epoch: 20 July)

Event Time Altitude Azimuth Distance (km) Brightness Sun altitude
Rises 21:50:13 0° 355° (N) 3,695 8.1 -18.1°
Reaches altitude 10° 21:52:46 10° 359° (N) 2,746 7.2 -18.4°
Maximum altitude 21:59:02 65° 81° (E) 1,079 4.1 -19.1°
Enters shadow 22:01:57 33° 152° (SSE) 1,598 4.6 -19.4°
